Location: Cicognara
(44.9500°N, 10.4667°E)
Time: 13:15:10
(UTC+00:00)

DELTA 2 R/B (1) - Pass Details

Date: 20 June 2021
Orbit: 789 x 803 km, 39.6° (Epoch: 02 August)

Event Time Altitude Azimuth Distance (km) Brightness Sun altitude
Exits shadow 23:47:09 35° 140° (SE) 1,258 4.2 -21.3°
Drops below altitude 10° 23:51:14 10° 97° (E) 2,349 6.0 -21.2°
Sets 23:53:51 0° 90° (E) 3,280 6.9 -21.2°
